Snowfall_Accumulation
0.0 0.0 0.0 0.0 0.0 0.0 0.0 0.0 0.0 0.0 0.0 0.0 0.0 0.0 0.0 0.0 0.0 0.2 0.0 0.0 0.0 0.0 0.0 0.0 0.0 0.0 0.0 0.0 0.0 0.0 0.0 0.0 0.0 0.0 0.0 0.0 0.0 0.0 0.0 0.0 0.0 0.0 0.0 0.0 0.0 0.0 0.0 0.0 0.0
0.0 0.0 0.0 0.0 0.0 0.1 0.0 0.0 0.0 0.0 0.0 0.0 0.0 0.0 0.0 0.1 0.0 0.0 0.0 0.0 0.0 0.0 0.0 0.0 0.0 0.0 0.0 0.0 0.0 0.0 0.0 0.0 0.0 0.0 0.0 0.0 0.0 0.0 0.0 0.0 0.0 0.0 0.0 0.0 0.0 0.0 0.0 0.0 0.0
0.0 0.0 0.0 0.0 0.0 0.1 0.0 0.0 0.0 0.0 0.0 0.0 0.0 0.0 0.1 0.1 0.1 0.0 0.0 0.0 0.0 0.0 0.0 0.0 0.0 0.0 0.0 0.0 0.0 0.0 0.0 0.0 0.0 0.0 0.0 0.0 0.0 0.0 0.0 0.0 0.0 0.0 0.0 0.0 0.0 0.0 0.0 0.0 0.0
0.0 0.0 0.0 0.0 0.3 0.0 0.0 0.0 0.0 0.0 0.0 0.0 0.0 0.0 0.1 0.0 0.0 0.0 0.0 0.0 0.0 0.0 0.0 0.0 0.0 0.0 0.0 0.0 0.0 0.0 0.0 0.0 0.0 0.0 0.0 0.0 0.0 0.0 0.0 0.0 0.0 0.0 0.0 0.0 0.0 0.0 0.0 0.0 0.0
0.0 0.0 0.0 0.0 0.1 0.0 0.0 0.0 0.0 0.0 0.0 0.0 0.1 0.1 0.1 0.0 0.0 0.0 0.0 0.0 0.0 0.0 0.0 0.0 0.0 0.0 0.0 0.0 0.0 0.0 0.0 0.0 0.0 0.0 0.0 0.0 0.0 0.0 0.0 0.0 0.0 0.0 0.0 0.0 0.0 0.0 0.0 0.0 0.0
0.0 0.0 0.0 0.5 0.1 0.0 0.0 0.0 0.0 0.0 0.0 0.0 0.1 0.1 0.2 0.0 0.0 0.0 0.0 0.0 0.0 0.0 0.0 0.0 0.0 0.0 0.0 0.0 0.0 0.0 0.0 0.0 0.0 0.0 0.0 0.0 0.0 0.0 0.0 0.0 0.0 0.0 0.0 0.0 0.0 0.0 0.0 0.0 0.0
0.0 0.0 0.1 0.1 0.0 0.0 0.0 0.0 0.0 0.0 0.0 0.0 0.1 0.2 0.2 0.1 0.0 0.0 0.0 0.0 0.0 0.0 0.0 0.0 0.0 0.0 0.0 0.0 0.0 0.0 0.0 0.0 0.0 0.0 0.0 0.0 0.0 0.0 0.0 0.0 0.0 0.0 0.0 0.0 0.0 0.0 0.0 0.0 0.0
0.0 0.0 0.1 0.1 0.0 0.0 0.0 0.0 0.0 0.0 0.0 0.0 0.1 0.1 0.2 0.1 0.0 0.0 0.0 0.0 0.0 0.0 0.0 0.0 0.0 0.0 0.0 0.0 0.0 0.0 0.0 0.0 0.0 0.0 0.0 0.0 0.0 0.0 0.0 0.0 0.0 0.0 0.0 0.0 0.0 0.0 0.0 0.0 0.0
0.0 0.0 0.8 0.2 0.0 0.0 0.0 0.0 0.0 0.0 0.0 0.1 0.1 0.2 0.2 0.1 0.0 0.0 0.0 0.0 0.0 0.0 0.0 0.0 0.0 0.0 0.0 0.0 0.0 0.0 0.0 0.0 0.0 0.0 0.0 0.0 0.0 0.0 0.0 0.0 0.0 0.0 0.0 0.0 0.0 0.0 0.0 0.0 0.0
0.0 0.5 0.1 0.0 0.0 0.0 0.0 0.0 0.1 0.1 0.1 0.1 0.1 0.1 0.1 0.1 0.0 0.0 0.0 0.0 0.0 0.0 0.0 0.0 0.0 0.0 0.0 0.0 0.0 0.0 0.0 0.0 0.0 0.0 0.0 0.0 0.0 0.0 0.0 0.0 0.0 0.0 0.0 0.0 0.0 0.0 0.0 0.0 0.0
0.0 0.3 0.0 0.0 0.0 0.1 0.1 0.1 0.1 0.1 0.1 0.2 0.2 0.1 0.1 0.0 0.0 0.0 0.0 0.0 0.0 0.0 0.0 0.0 0.0 0.0 0.0 0.0 0.0 0.0 0.0 0.0 0.0 0.0 0.0 0.0 0.0 0.0 0.0 0.0 0.0 0.0 0.0 0.0 0.0 0.0 0.0 0.0 0.0
0.0 0.0 0.0 0.0 0.0 0.0 0.1 0.1 0.1 0.1 0.3 0.2 0.2 0.1 0.1 0.1 0.1 0.0 0.2 0.1 0.0 0.0 0.0 0.0 0.0 0.0 0.0 0.0 0.0 0.0 0.0 0.0 0.0 0.0 0.0 0.0 0.0 0.0 0.0 0.0 0.0 0.0 0.0 0.0 0.0 0.0 0.0 0.0 0.0
0.1 0.1 0.0 0.1 0.0 0.0 0.0 0.1 0.1 0.1 0.2 0.1 0.1 0.1 0.1 0.1 0.1 0.1 0.2 0.1 0.0 0.0 0.0 0.0 0.0 0.0 0.0 0.0 0.0 0.0 0.0 0.0 0.0 0.0 0.0 0.0 0.0 0.0 0.0 0.0 0.0 0.0 0.0 0.0 0.0 0.0 0.0 0.0 0.0
0.1 0.1 0.0 0.0 0.0 0.0 0.0 0.0 0.1 0.2 0.1 0.1 0.1 0.1 0.1 0.1 0.1 0.1 0.1 0.1 0.1 0.0 0.0 0.0 0.0 0.0 0.0 0.0 0.0 0.0 0.0 0.0 0.0 0.0 0.0 0.0 0.0 0.0 0.0 0.0 0.0 0.0 0.0 0.0 0.0 0.0 0.0 0.0 0.0
0.1 0.1 0.1 0.0 0.0 0.1 0.1 0.1 0.1 0.2 0.1 0.1 0.2 0.2 0.1 0.2 0.1 0.1 0.2 0.2 0.1 0.1 0.0 0.0 0.0 0.0 0.0 0.0 0.0 0.0 0.0 0.1 0.1 0.0 0.0 0.0 0.0 0.0 0.0 0.0 0.0 0.0 0.0 0.0 0.0 0.0 0.0 0.0 0.0
0.1 0.7 1.5 0.4 0.0 0.1 0.3 1.2 0.2 0.2 0.1 0.1 0.2 0.2 0.2 0.3 0.3 0.2 0.2 0.2 0.2 0.2 0.2 0.2 0.0 0.0 0.0 0.1 0.0 0.0 0.0 0.0 0.1 0.1 0.1 0.0 0.0 0.0 0.0 0.0 0.0 0.0 0.0 0.0 0.0 0.0 0.0 0.0 0.1
3.4 4.0 2.2 1.2 0.2 0.2 0.7 0.9 0.3 0.2 0.2 0.3 0.3 0.3 0.3 0.3 0.3 0.4 0.4 0.3 0.3 0.4 0.4 0.3 0.3 0.2 0.2 0.2 0.1 0.0 0.0 0.2 0.1 0.1 0.1 0.1 0.0 0.0 0.0 0.0 0.0 0.0 0.0 0.0 0.0 0.0 0.0 0.0 0.0
4.5 3.5 2.2 1.6 0.7 0.4 0.9 0.7 0.4 0.3 0.3 0.4 0.4 0.4 0.4 0.4 0.5 0.5 0.5 0.7 0.3 0.3 0.4 0.4 0.3 0.3 0.3 0.2 0.3 0.2 0.1 0.1 0.3 0.1 0.1 0.1 0.1 0.1 0.1 0.0 0.0 0.0 0.1 0.1 0.0 0.0 0.0 0.0 0.0
1.9 2.4 2.4 1.3 0.4 0.8 1.0 1.0 0.7 0.4 0.4 0.4 0.5 0.5 0.7 0.7 0.5 0.5 0.5 0.7 0.9 0.4 0.3 0.3 0.4 0.6 0.5 0.4 0.5 0.5 0.4 0.3 0.2 0.3 0.3 0.1 0.1 0.1 0.1 0.1 0.1 0.1 0.1 0.1 0.1 0.1 0.1 0.0 0.0
2.5 3.4 3.0 1.5 0.4 0.9 1.5 1.1 0.7 0.6 0.7 0.7 0.7 0.6 0.8 0.8 0.8 0.7 0.6 0.6 1.1 1.1 0.5 0.5 0.4 0.6 0.7 0.7 0.5 0.5 0.5 0.4 0.4 0.5 0.4 0.3 0.2 0.2 0.1 0.2 0.1 0.2 0.2 0.2 0.4 0.1 0.1 0.1 0.1
3.8 3.2 2.4 2.6 1.6 1.1 2.1 1.9 1.0 0.8 0.8 0.7 0.7 0.6 0.8 1.3 1.0 1.1 0.8 0.9 1.1 1.4 1.1 0.7 0.5 0.6 0.6 0.6 0.5 0.5 0.4 0.5 0.2 0.3 0.4 0.4 0.6 0.3 0.3 0.3 0.3 0.3 0.3 0.3 0.3 0.4 0.4 0.2 0.2
4.5 1.3 1.4 2.1 3.5 4.8 3.8 8.5 2.0 0.9 0.8 0.9 0.9 0.8 0.9 1.2 0.8 1.0 0.9 1.0 0.9 1.1 1.0 1.0 0.9 0.8 0.8 0.6 0.8 1.0 0.8 0.9 0.9 0.5 0.3 0.5 0.6 0.7 0.7 0.5 0.3 0.3 0.4 0.4 0.4 0.3 0.5 0.6 0.3
3.1 0.7 1.4 2.4 4.3 6.0 3.4 7.8 4.8 0.9 1.3 1.4 1.2 1.0 1.0 0.8 0.7 0.8 0.9 0.8 0.9 0.9 0.9 0.9 0.9 1.0 0.8 0.6 0.8 0.9 1.2 0.9 0.8 0.5 0.4 0.4 0.5 0.6 0.7 0.8 0.5 0.5 0.3 0.3 0.3 0.3 0.4 0.5 0.4
1.4 1.3 2.1 2.9 6.1 10.3 4.1 6.3 6.4 3.4 3.3 1.7 1.4 1.1 1.0 0.9 0.8 0.8 0.9 0.7 0.7 0.8 0.8 0.8 0.8 0.8 0.8 0.8 0.6 0.8 1.0 0.9 0.8 0.8 0.6 0.4 0.4 0.4 0.5 0.6 0.7 0.6 0.4 0.2 0.2 0.3 0.4 0.5 0.5
3.9 8.2 13.6 14.3 13.5 7.2 2.5 4.9 6.9 3.1 2.1 2.1 2.1 1.7 1.3 1.0 1.0 1.0 1.1 1.2 0.9 0.8 0.7 0.6 0.6 0.6 0.6 0.7 0.7 0.8 0.9 1.0 1.0 1.1 0.9 0.6 0.5 0.4 0.4 0.4 0.5 0.6 0.7 0.6 0.4 0.6 0.3 0.3 0.4
4.0 6.1 10.3 10.0 6.2 3.8 3.0 4.9 5.7 2.1 1.6 1.5 1.4 1.4 1.3 1.2 1.1 1.1 1.1 1.0 0.9 0.7 0.7 0.6 0.8 0.7 0.6 0.6 0.6 0.7 0.9 1.0 1.3 1.2 0.9 0.9 0.6 0.4 0.3 0.3 0.3 0.4 0.5 0.6 0.7 0.7 0.7 0.5 0.4
5.4 6.2 4.6 9.0 6.7 5.3 4.1 4.4 3.5 1.3 1.2 1.1 1.2 1.4 1.4 1.5 1.4 1.2 1.0 1.0 0.9 0.8 0.8 0.7 1.0 0.9 0.6 0.6 0.7 0.7 0.8 0.9 0.9 0.8 0.9 0.8 0.7 0.6 0.4 0.3 0.3 0.3 0.4 0.5 0.6 0.7 0.7 0.8 0.4
2.4 3.7 6.7 12.6 11.6 7.9 4.6 4.1 5.8 4.0 2.5 1.6 1.7 2.1 2.2 1.9 1.7 1.4 1.4 1.5 1.0 0.8 0.7 0.7 0.8 1.2 0.8 0.8 0.8 0.7 1.0 0.6 0.7 0.7 0.7 0.6 0.6 0.6 0.6 0.5 0.5 0.5 0.5 0.3 0.4 0.6 0.6 0.8 0.6
3.0 4.8 6.7 8.9 8.9 9.4 6.4 5.9 5.7 4.5 3.2 2.8 2.3 2.6 2.8 2.4 2.3 2.1 2.0 1.8 1.6 1.2 1.0 1.0 0.9 1.1 1.1 1.0 0.9 1.1 1.0 0.8 0.7 0.8 0.8 0.6 0.5 0.5 0.5 0.7 0.6 0.6 0.7 0.6 0.4 0.5 0.5 0.7 0.7
2.6 3.9 5.8 10.6 8.6 7.0 7.3 7.2 3.7 2.7 2.5 2.5 2.4 2.4 2.4 2.0 2.0 2.2 2.2 1.9 1.9 1.7 1.6 1.7 1.4 1.5 1.5 1.2 1.0 1.1 1.2 1.0 0.7 0.8 0.9 0.8 0.7 0.5 0.5 0.5 0.6 0.6 0.5 0.6 0.7 0.4 0.6 0.6 0.6